Wind_Speed
23 25 28 30 32 33 35 36 37 38 40 41 41 40 40 42 42 41 41 40 39 37 35 33 31 28 27 25 23 23 23 23 23 23 23 22 22 21 20 19 19 20 20 20
22 25 27 30 32 34 36 38 39 40 41 42 42 41 42 43 43 43 42 41 40 39 37 36 34 32 31 29 26 25 25 25 25 26 26 25 24 24 23 22 22 21 21 21
20 23 27 30 33 35 37 39 40 42 43 44 44 43 42 43 43 43 42 41 39 39 38 37 36 35 33 31 29 28 28 28 28 29 30 27 26 26 25 24 23 22 22 22
20 24 27 30 33 35 37 38 40 41 42 42 41 42 39 39 38 39 39 39 38 37 37 36 36 36 35 34 32 32 31 31 32 32 33 31 29 28 26 25 24 23 23 23
22 26 29 32 35 37 40 40 41 41 41 41 39 40 37 34 32 33 33 33 34 34 35 35 34 35 35 35 35 34 35 35 35 35 34 32 31 28 25 24 24 24 23 23
26 31 34 37 40 42 43 43 43 42 40 40 36 35 35 32 30 29 29 30 30 30 31 31 32 33 34 35 36 36 37 37 36 37 36 32 30 27 24 23 23 23 23 23
31 34 37 39 41 42 43 43 43 41 38 36 32 31 31 29 27 26 26 26 27 28 28 29 30 31 32 33 35 36 38 38 37 36 33 31 29 27 24 24 24 24 24 24
33 35 37 39 40 39 38 38 36 35 32 29 26 25 24 24 23 23 24 24 25 26 26 28 29 30 31 32 33 34 35 35 34 33 31 29 27 25 23 23 23 23 24 23
33 34 35 34 34 33 31 28 29 29 27 25 24 23 20 20 21 21 22 22 23 24 24 26 27 29 30 30 31 32 32 30 30 28 27 24 23 21 20 21 22 22 22 22
32 33 32 31 28 26 23 20 18 18 20 19 19 18 17 17 17 17 18 19 19 22 22 23 24 26 27 28 28 26 26 24 23 21 20 19 18 18 19 19 21 21 22 23
30 31 30 27 24 22 19 15 12 11 12 13 14 13 13 14 14 13 13 14 15 17 19 20 21 23 24 24 23 22 21 19 17 16 15 15 15 16 18 20 21 22 23 24
29 29 27 26 24 21 18 13 8 5 5 8 9 8 8 8 8 9 9 10 11 12 14 14 15 16 17 18 16 15 15 14 12 12 12 13 15 17 19 21 22 23 23 24
28 27 26 24 23 21 17 13 10 5 1 1 3 3 4 4 5 5 5 5 6 6 6 6 6 7 8 9 10 9 9 10 11 11 12 13 16 18 20 21 23 24 24 24
26 26 27 26 25 22 19 16 13 10 7 6 5 4 2 2 3 3 3 2 1 1 1 1 1 1 3 4 5 7 8 8 10 11 13 15 17 19 19 21 22 23 23 23
25 25 26 27 24 21 20 18 15 12 9 9 9 8 6 5 6 6 6 6 7 6 5 4 4 3 3 2 4 5 6 7 9 12 14 16 17 18 19 19 19 20 19 19
25 24 25 25 24 22 20 17 16 14 11 11 11 11 10 9 8 9 8 9 9 8 8 8 7 5 3 1 2 4 6 7 10 11 13 14 15 17 17 17 17 17 16 16
25 24 24 24 22 20 19 17 15 14 13 11 11 10 10 10 9 8 8 8 8 9 9 8 7 6 5 3 2 3 5 7 9 11 13 14 15 16 16 16 16 16 16 16
25 24 23 23 22 19 18 17 14 12 12 11 10 10 9 9 9 9 9 9 9 8 8 7 7 6 5 5 5 6 7 9 10 12 14 15 15 16 16 17 17 16 16 16
24 23 23 22 21 19 17 16 14 12 11 11 10 9 8 8 8 8 8 8 8 8 8 8 8 8 7 7 7 8 9 10 11 12 13 14 15 16 16 17 17 16 17 17
24 23 22 21 20 19 17 16 13 11 10 10 10 9 7 6 6 7 7 7 7 8 8 8 8 8 8 9 9 10 11 11 12 13 14 15 15 16 17 17 17 17 17 17
23 23 22 20 19 18 17 15 13 11 10 9 8 8 7 6 6 6 6 6 7 7 8 8 9 10 10 11 12 12 13 13 14 15 15 15 16 16 16 16 16 16 16 17
24 23 23 21 19 18 16 14 13 11 8 8 7 6 5 5 4 5 5 6 7 8 9 10 10 11 12 13 14 15 15 15 16 16 16 16 16 16 16 16 16 16 16 16
24 24 24 22 20 18 16 14 13 12 9 8 7 6 5 4 4 5 5 6 7 8 9 10 12 13 14 15 16 17 17 17 17 17 17 17 17 17 17 16 16 16 15 15
23 24 24 23 22 20 17 15 14 12 10 9 7 7 6 6 6 6 6 6 7 8 10 11 12 14 15 16 17 18 18 18 18 19 19 19 18 18 17 16 15 14 13 13
22 23 23 22 23 22 19 17 16 13 10 9 9 8 8 8 8 7 6 6 7 8 10 11 13 14 15 16 17 18 19 19 19 19 19 18 17 16 15 13 12 11 11 10
20 21 22 22 22 22 21 19 17 14 11 10 10 9 9 9 9 8 7 7 7 8 9 10 12 14 15 16 17 18 19 19 19 19 18 17 16 14 12 11 10 9 8 8
Wind_Direction
251 255 258 260 262 264 265 266 266 267 268 269 270 271 271 271 271 271 271 271 272 272 270 269 270 270 272 277 278 279 278 278 275 276 276 275 273 273 272 269 267 267 268 268
258 261 264 265 267 268 268 269 269 268 269 269 270 271 271 271 271 271 271 270 270 270 269 268 267 268 270 272 273 271 273 273 272 272 271 269 270 270 271 269 267 266 266 266
268 270 270 271 272 272 272 273 272 272 271 271 271 271 271 272 272 272 271 270 269 268 268 265 265 265 265 266 266 265 266 268 266 265 266 265 266 268 269 269 266 264 265 264
278 278 278 279 278 278 276 276 275 274 274 274 274 273 271 272 272 272 271 270 269 268 267 264 262 260 260 260 259 259 260 261 261 262 262 261 263 263 265 266 265 263 263 264
290 289 288 286 285 283 280 278 276 275 275 275 275 274 273 272 272 272 272 271 270 268 266 262 258 257 255 254 254 254 254 254 256 255 256 256 260 261 261 262 263 263 262 263
301 298 295 293 290 287 284 281 279 277 276 275 276 275 275 274 274 273 272 270 268 266 262 258 255 253 252 251 251 250 251 250 251 252 254 256 259 257 259 263 263 263 264 265
310 307 303 299 296 292 287 284 283 281 278 277 275 274 276 276 275 273 269 266 264 261 257 254 251 249 250 250 249 248 250 249 249 250 252 255 258 258 261 264 264 264 265 265
319 315 310 307 302 297 290 284 281 280 278 277 273 272 275 275 275 272 268 264 260 257 253 250 249 247 246 247 247 249 251 249 251 252 252 253 254 258 262 262 262 263 264 265
330 327 323 318 313 307 299 289 280 274 272 272 271 270 269 272 274 273 268 265 260 256 253 249 248 247 246 247 248 249 252 252 254 254 253 256 257 260 264 266 265 265 266 268
341 339 337 333 328 323 315 303 287 275 267 264 266 268 270 271 276 278 273 267 261 256 255 251 249 248 247 248 247 251 250 256 254 252 252 255 259 263 265 266 268 269 271 274
348 349 349 346 345 341 336 324 304 278 265 263 265 266 273 283 281 285 281 268 261 259 256 256 256 253 251 250 249 253 248 248 248 247 254 263 265 269 272 274 276 276 277 278
356 360 2 1 1 1 360 359 343 297 260 256 264 271 272 290 299 290 285 274 265 263 260 261 259 256 249 248 248 246 243 243 244 252 262 269 272 274 277 279 280 281 281 279
6 10 12 12 14 17 20 27 31 38 47 277 266 285 272 308 324 309 301 282 266 257 265 270 272 260 245 237 233 238 234 238 248 257 267 275 280 281 280 283 284 282 283 279
14 17 19 20 23 29 35 42 49 57 67 66 56 47 36 12 352 351 16 40 60 252 303 330 319 250 192 193 221 237 237 247 258 265 274 280 285 287 286 287 287 284 283 279
17 18 19 22 27 33 39 47 54 58 62 67 68 62 60 55 51 60 66 68 70 62 59 65 81 95 118 170 215 233 242 254 267 274 278 282 287 289 290 291 289 287 284 278
19 20 20 23 29 35 39 44 49 57 66 71 68 64 65 57 57 62 65 65 61 59 64 64 66 66 65 52 266 256 263 267 274 281 284 287 289 291 292 291 291 289 288 281
20 20 22 24 27 32 37 40 45 49 55 58 59 62 62 51 53 56 59 62 61 64 61 53 48 47 43 24 345 299 285 284 289 291 293 292 293 294 295 296 294 290 286 282
20 20 21 23 25 30 31 34 39 45 48 51 52 56 56 53 50 56 60 57 54 53 48 41 34 26 15 359 339 321 309 301 300 299 298 298 298 297 296 295 294 290 285 279
19 20 21 22 22 25 26 26 29 34 40 39 38 40 43 44 42 43 45 43 42 41 35 29 25 19 9 357 344 331 321 315 310 307 304 302 301 299 297 295 294 290 286 282
15 15 15 15 15 16 17 19 21 23 27 26 25 27 29 31 32 35 35 33 30 29 28 22 16 8 359 350 342 333 326 320 315 312 309 306 303 300 298 296 293 289 285 282
11 12 12 10 10 10 11 12 13 15 14 15 15 18 22 26 30 28 24 23 18 17 14 8 3 359 354 350 344 337 331 326 321 318 315 312 309 306 303 299 295 291 287 283
9 9 9 7 7 6 5 4 5 2 358 0 1 5 13 17 15 12 9 8 7 4 1 358 355 353 351 348 346 341 336 332 328 325 322 318 314 311 308 303 299 295 291 287
8 8 7 6 3 360 357 356 352 351 346 341 338 340 340 344 349 351 348 351 352 352 352 352 351 350 349 348 346 344 341 337 334 331 328 324 320 317 313 308 304 299 294 289
6 6 6 6 4 360 355 348 343 341 337 333 327 319 312 312 318 325 326 330 338 344 347 349 350 350 349 349 348 345 342 339 336 333 330 327 323 321 317 314 310 305 301 296
0 4 5 5 4 3 360 353 347 342 334 327 320 313 307 305 304 307 311 323 331 338 345 349 350 351 351 350 349 347 345 342 339 336 333 331 329 327 325 323 320 318 315 312
354 359 2 3 2 2 0 356 352 347 339 329 322 315 308 306 302 300 301 310 322 332 341 347 349 351 351 351 351 350 348 347 345 344 343 342 340 339 339 340 340 340 338 336
Height
5860 5861 5859 5859 5858 5857 5856 5855 5855 5855 5853 5853 5852 5853 5852 5850 5850 5851 5852 5853 5854 5857 5858 5859 5860 5860 5860 5860 5860 5859 5859 5859 5858 5858 5857 5856 5856 5856 5856 5857 5857 5857 5857 5857
5856 5855 5854 5852 5851 5850 5848 5847 5846 5846 5844 5843 5843 5843 5842 5841 5841 5841 5842 5843 5845 5847 5849 5850 5851 5852 5853 5853 5853 5853 5853 5853 5852 5852 5851 5850 5850 5850 5850 5851 5851 5852 5852 5852
5852 5851 5848 5846 5844 5842 5840 5838 5837 5835 5834 5832 5833 5834 5832 5831 5830 5831 5832 5833 5835 5837 5839 5841 5842 5844 5845 5846 5846 5847 5847 5847 5846 5845 5844 5843 5843 5844 5844 5844 5845 5846 5846 5847
5847 5845 5843 5840 5837 5834 5832 5829 5826 5824 5823 5822 5822 5821 5823 5822 5821 5821 5822 5823 5825 5827 5829 5830 5832 5834 5836 5837 5838 5839 5839 5839 5838 5838 5836 5836 5836 5837 5837 5838 5839 5840 5841 5842
5843 5840 5836 5833 5829 5825 5821 5819 5816 5814 5812 5811 5811 5810 5813 5813 5813 5812 5813 5813 5815 5817 5818 5820 5822 5824 5826 5827 5829 5830 5830 5831 5830 5829 5828 5827 5829 5830 5830 5832 5833 5834 5834 5835
5838 5833 5829 5824 5819 5814 5810 5807 5804 5803 5801 5801 5802 5801 5802 5803 5804 5804 5804 5805 5806 5807 5809 5810 5812 5814 5816 5818 5819 5820 5821 5821 5822 5821 5821 5821 5821 5822 5823 5825 5827 5828 5828 5829
5832 5826 5820 5814 5808 5803 5797 5794 5791 5790 5789 5790 5791 5791 5793 5794 5795 5796 5796 5797 5798 5799 5800 5802 5803 5805 5807 5809 5809 5811 5812 5812 5813 5813 5813 5814 5815 5816 5817 5818 5821 5822 5822 5823
5825 5819 5811 5803 5796 5790 5785 5782 5781 5779 5779 5780 5782 5783 5786 5786 5787 5788 5788 5789 5790 5792 5793 5794 5795 5797 5799 5800 5801 5803 5803 5803 5804 5805 5807 5808 5809 5809 5811 5813 5814 5815 5816 5817
5818 5811 5802 5793 5785 5779 5773 5770 5769 5769 5770 5772 5774 5777 5779 5780 5780 5781 5782 5783 5784 5785 5786 5787 5788 5789 5791 5792 5794 5795 5795 5796 5797 5799 5801 5801 5803 5804 5806 5808 5809 5810 5811 5811
5812 5804 5796 5787 5779 5771 5765 5762 5761 5762 5763 5766 5769 5771 5773 5774 5775 5775 5776 5777 5778 5779 5780 5781 5782 5783 5785 5786 5787 5788 5789 5790 5792 5793 5795 5797 5798 5799 5801 5802 5803 5804 5805 5805
5808 5801 5792 5783 5775 5768 5763 5759 5757 5758 5760 5762 5765 5770 5769 5770 5771 5771 5771 5772 5773 5774 5775 5777 5777 5779 5780 5780 5781 5783 5784 5786 5788 5789 5791 5793 5794 5795 5796 5797 5798 5798 5798 5799
5806 5799 5790 5782 5775 5767 5762 5758 5756 5757 5759 5761 5763 5769 5767 5768 5768 5769 5769 5769 5770 5771 5772 5773 5774 5774 5775 5776 5777 5779 5780 5782 5784 5786 5788 5790 5791 5792 5793 5793 5793 5793 5792 5792
5806 5799 5791 5783 5778 5771 5764 5760 5758 5759 5760 5762 5763 5768 5766 5767 5768 5767 5767 5768 5768 5769 5770 5771 5771 5771 5772 5773 5775 5777 5779 5780 5782 5784 5785 5787 5787 5788 5789 5788 5788 5787 5786 5785
5807 5800 5794 5787 5779 5773 5768 5765 5763 5763 5763 5764 5765 5766 5767 5767 5768 5767 5767 5767 5768 5769 5770 5770 5770 5770 5771 5773 5775 5776 5778 5779 5780 5782 5783 5784 5784 5784 5784 5783 5782 5781 5780 5779
5808 5802 5796 5789 5783 5778 5774 5771 5769 5768 5767 5768 5768 5768 5768 5768 5768 5768 5768 5768 5769 5769 5770 5770 5770 5771 5771 5773 5774 5776 5777 5778 5779 5780 5780 5780 5780 5780 5779 5778 5777 5776 5774 5774
5810 5805 5799 5794 5788 5783 5780 5776 5774 5773 5772 5772 5772 5772 5771 5771 5770 5770 5770 5770 5771 5771 5771 5771 5772 5772 5773 5773 5774 5775 5776 5777 5777 5777 5777 5777 5776 5775 5774 5773 5772 5771 5769 5769
5813 5808 5803 5798 5793 5789 5785 5782 5780 5778 5777 5776 5775 5776 5774 5774 5773 5773 5773 5773 5773 5773 5773 5774 5774 5774 5774 5774 5775 5775 5775 5775 5774 5774 5774 5773 5772 5771 5770 5768 5767 5766 5765 5764
5816 5811 5806 5801 5798 5794 5792 5786 5784 5782 5781 5779 5779 5778 5777 5777 5776 5776 5775 5775 5775 5775 5775 5775 5775 5775 5775 5774 5774 5774 5773 5773 5772 5771 5770 5769 5768 5766 5765 5764 5762 5761 5760 5759
5818 5813 5809 5805 5801 5797 5794 5790 5788 5786 5785 5783 5782 5781 5780 5779 5779 5779 5778 5778 5777 5777 5777 5776 5776 5775 5775 5774 5773 5772 5772 5770 5769 5768 5766 5765 5763 5762 5760 5758 5757 5755 5754 5754
5820 5816 5812 5807 5803 5800 5798 5794 5791 5790 5788 5786 5784 5783 5782 5781 5781 5781 5780 5779 5779 5778 5778 5777 5777 5776 5775 5774 5772 5771 5769 5768 5766 5764 5763 5761 5759 5757 5755 5753 5751 5750 5749 5748
5822 5818 5814 5809 5806 5802 5799 5796 5794 5792 5791 5788 5786 5785 5784 5783 5783 5782 5781 5780 5780 5779 5778 5778 5776 5775 5774 5772 5770 5768 5766 5764 5762 5760 5758 5756 5754 5752 5750 5748 5746 5745 5743 5742
5823 5819 5815 5811 5807 5806 5800 5797 5795 5794 5790 5789 5788 5786 5785 5784 5783 5783 5782 5781 5780 5779 5778 5777 5776 5774 5772 5770 5768 5766 5763 5761 5758 5756 5753 5751 5749 5747 5744 5742 5741 5739 5738 5736
5825 5821 5816 5813 5810 5805 5800 5798 5795 5793 5791 5790 5789 5787 5786 5785 5784 5783 5782 5782 5781 5779 5778 5777 5775 5773 5771 5768 5766 5763 5760 5758 5755 5752 5749 5747 5744 5742 5739 5737 5735 5733 5732 5731
5826 5822 5818 5813 5809 5805 5801 5797 5795 5792 5791 5790 5788 5787 5786 5785 5784 5783 5783 5782 5781 5780 5778 5776 5774 5772 5769 5767 5764 5761 5758 5755 5752 5749 5746 5742 5740 5737 5734 5732 5730 5728 5727 5725
5827 5823 5818 5814 5810 5805 5801 5797 5794 5792 5790 5789 5787 5786 5785 5784 5783 5782 5782 5781 5780 5779 5778 5776 5774 5772 5769 5766 5763 5760 5757 5753 5750 5746 5742 5739 5736 5733 5730 5728 5726 5724 5723 5721
5827 5824 5820 5816 5811 5807 5802 5797 5794 5791 5789 5788 5786 5785 5784 5782 5781 5780 5780 5780 5779 5778 5777 5775 5774 5771 5769 5766 5762 5759 5755 5752 5748 5744 5740 5737 5734 5731 5728 5726 5724 5722 5720 5719